DRGON51 KBAB-EGVA

Flight info

Callsign DRGON51
Flight time N/A
Altitude 17500
Route 3905N12125W DCT 3904N12003W 4445N11228W 5032N09917W 5304N09035W 5653N06759W/M028F175 5607N04250W 5417N02537W 5026N00949W/N0175F175
Aircraft SR22/L-SDGRY/S

Departure

Time 2026-04-24 22:34
Airport Beale Air Force Base (KBAB)

Arrival

Time N/A
Airport RAF Fairford (EGVA)
Time Latitude Longitude Altitude Speed Heading
2026-04-24 22:16 39.14996 -121.43523 118 ft 0 kts 245°
2026-04-24 22:23 39.14995 -121.43523 118 ft 0 kts 245°
2026-04-24 22:24 39.14235 -121.43253 118 ft 0 kts 71°
2026-04-24 22:25 39.14236 -121.43251 118 ft 1 kts 72°
2026-04-24 22:25 39.14238 -121.43241 118 ft 0 kts 85°
2026-04-24 22:25 39.14236 -121.43222 118 ft 0 kts 105°
2026-04-24 22:27 39.14222 -121.43192 118 ft 8 kts 142°
2026-04-24 22:27 39.14156 -121.43176 118 ft 10 kts 181°
2026-04-24 22:27 39.14097 -121.43214 118 ft 9 kts 234°
2026-04-24 22:28 39.14068 -121.43283 118 ft 8 kts 260°
2026-04-24 22:28 39.14074 -121.43336 118 ft 0 kts 348°
2026-04-24 22:28 39.14088 -121.43341 118 ft 5 kts 334°
2026-04-24 22:28 39.14115 -121.43386 118 ft 4 kts 279°
2026-04-24 22:29 39.14072 -121.43552 118 ft 16 kts 251°
2026-04-24 22:29 39.14034 -121.43701 118 ft 18 kts 254°
2026-04-24 22:29 39.14006 -121.43807 118 ft 0 kts 211°
2026-04-24 22:30 39.13993 -121.43812 118 ft 5 kts 191°
2026-04-24 22:30 39.13918 -121.43798 118 ft 7 kts 163°
2026-04-24 22:30 39.13917 -121.43797 118 ft 0 kts 162°
2026-04-24 22:31 39.13826 -121.43758 118 ft 54 kts 161°
2026-04-24 22:31 39.13339 -121.43520 115 ft 0 kts 57°
2026-04-24 22:33 39.13410 -121.43568 118 ft 0 kts 160°
2026-04-24 22:33 39.13405 -121.43575 118 ft 0 kts 160°
2026-04-24 22:34 39.13305 -121.43531 118 ft 60 kts 162°
2026-04-24 22:34 39.12548 -121.43201 402 ft 150 kts 162°
2026-04-24 22:34 39.11726 -121.42844 1983 ft 133 kts 155°
2026-04-24 22:35 39.11091 -121.42042 3140 ft 145 kts 109°
2026-04-24 22:35 39.11004 -121.40665 4159 ft 172 kts 89°
2026-04-24 22:35 39.11296 -121.39240 5628 ft 173 kts 65°
2026-04-24 22:35 39.11963 -121.38168 7191 ft 156 kts 39°
2026-04-24 22:36 39.12850 -121.37587 8490 ft 148 kts 15°
2026-04-24 22:36 39.13820 -121.37580 9632 ft 146 kts 347°
2026-04-24 22:36 39.14704 -121.38123 10623 ft 150 kts 324°
2026-04-24 22:36 39.15379 -121.39086 11694 ft 149 kts 302°
2026-04-24 22:37 39.15684 -121.40327 12591 ft 157 kts 275°
2026-04-24 22:37 39.15509 -121.41758 13444 ft 171 kts 250°
2026-04-24 22:37 39.14878 -121.43025 14460 ft 174 kts 223°
2026-04-24 22:37 39.13855 -121.43803 15439 ft 176 kts 193°
2026-04-24 22:38 39.12648 -121.43859 16393 ft 178 kts 167°
2026-04-24 22:38 39.11527 -121.43287 17306 ft 179 kts 143°
2026-04-24 22:38 39.10682 -121.42131 18193 ft 182 kts 117°
2026-04-24 22:38 39.10249 -121.40659 19175 ft 178 kts 99°
2026-04-24 22:39 39.10152 -121.39079 20010 ft 182 kts 88°
2026-04-24 22:39 39.10360 -121.37472 20802 ft 187 kts 70°
2026-04-24 22:39 39.10774 -121.35873 21641 ft 191 kts 70°
2026-04-24 22:39 39.11176 -121.34283 22627 ft 183 kts 70°
2026-04-24 22:40 39.11527 -121.32860 23650 ft 163 kts 69°
2026-04-24 22:40 39.11760 -121.31604 22583 ft 183 kts 101°